Precipitable_Water
1.12 1.22 1.35 1.45 1.45 1.44 1.39 1.43 1.41 1.42 1.52 1.52 1.34 1.28 1.24 1.20 1.17 1.13 1.11 1.10 1.14 1.19 1.26 1.32 1.38 1.42 1.46 1.47 1.40 1.41 1.38 1.40 1.45 1.50 1.53 1.52 1.47 1.40 1.32 1.22 1.19 1.38 1.26
1.12 1.26 1.33 1.33 1.34 1.34 1.32 1.33 1.31 1.29 1.26 1.24 1.20 1.20 1.21 1.23 1.22 1.22 1.17 1.10 1.03 1.03 1.09 1.15 1.18 1.23 1.30 1.34 1.38 1.38 1.39 1.41 1.45 1.48 1.53 1.57 1.50 1.50 1.49 1.34 1.12 1.22 1.35
1.09 1.27 1.32 1.34 1.29 1.31 1.32 1.29 1.26 1.25 1.26 1.25 1.26 1.26 1.25 1.23 1.22 1.21 1.20 1.23 1.23 1.06 0.95 0.98 1.02 1.08 1.13 1.19 1.27 1.32 1.36 1.39 1.44 1.48 1.48 1.59 1.53 1.55 1.51 1.42 1.29 1.26 1.26
0.98 1.18 1.30 1.33 1.28 1.24 1.23 1.31 1.29 1.26 1.28 1.29 1.29 1.29 1.29 1.29 1.28 1.25 1.22 1.20 1.20 1.21 1.20 1.07 0.96 0.91 0.96 1.05 1.12 1.19 1.29 1.38 1.41 1.46 1.43 1.53 1.58 1.58 1.58 1.54 1.35 1.46 1.44
0.88 1.05 1.23 1.22 1.19 1.15 1.17 1.21 1.26 1.30 1.30 1.28 1.30 1.31 1.29 1.28 1.26 1.25 1.24 1.24 1.22 1.20 1.20 1.19 1.19 1.11 0.99 0.96 1.03 1.05 1.17 1.28 1.32 1.37 1.39 1.44 1.47 1.55 1.53 1.57 1.53 1.28 1.55
0.88 0.94 1.15 1.19 1.19 1.17 1.18 1.17 1.16 1.18 1.23 1.24 1.27 1.29 1.26 1.22 1.22 1.20 1.19 1.19 1.19 1.20 1.20 1.21 1.21 1.18 1.13 1.08 1.06 1.04 1.13 1.22 1.24 1.29 1.31 1.35 1.41 1.45 1.49 1.56 1.55 1.52 1.43
0.87 0.88 0.93 1.15 1.17 1.18 1.20 1.18 1.15 1.14 1.14 1.14 1.12 1.09 1.12 1.17 1.16 1.15 1.13 1.13 1.13 1.12 1.12 1.12 1.16 1.18 1.17 1.16 1.10 1.13 1.19 1.17 1.17 1.21 1.23 1.27 1.34 1.47 1.44 1.44 1.49 1.58 1.52
0.85 0.86 0.86 0.89 0.95 1.03 1.04 1.08 1.08 1.05 1.03 1.03 0.99 0.95 0.94 0.93 0.94 0.91 0.92 0.93 0.94 0.99 1.02 1.03 1.02 1.06 1.09 1.09 1.11 1.10 1.10 1.22 1.26 1.13 1.13 1.24 1.35 1.41 1.41 1.38 1.44 1.49 1.55
0.82 0.82 0.82 0.83 0.84 0.84 0.89 0.91 0.95 0.92 0.90 0.87 0.85 0.80 0.74 0.69 0.67 0.67 0.66 0.70 0.72 0.75 0.78 0.83 0.89 0.91 0.93 0.98 1.00 1.00 1.06 1.08 1.14 1.18 1.22 1.20 1.30 1.39 1.49 1.49 1.42 1.48 1.50
0.73 0.75 0.76 0.77 0.75 0.75 0.77 0.84 0.83 0.80 0.76 0.72 0.64 0.57 0.54 0.51 0.51 0.51 0.52 0.55 0.57 0.59 0.61 0.65 0.69 0.73 0.80 0.83 0.86 0.92 0.96 0.99 1.05 1.01 1.09 1.26 1.36 1.40 1.46 1.51 1.50 1.45 1.45
0.65 0.67 0.68 0.66 0.65 0.67 0.66 0.68 0.67 0.64 0.58 0.51 0.48 0.49 0.45 0.43 0.42 0.40 0.41 0.41 0.40 0.41 0.44 0.48 0.53 0.57 0.60 0.65 0.73 0.77 0.85 0.92 0.97 0.99 1.09 1.21 1.28 1.36 1.40 1.42 1.46 1.49 1.50
0.61 0.61 0.62 0.63 0.61 0.61 0.59 0.54 0.49 0.45 0.43 0.40 0.37 0.35 0.33 0.31 0.31 0.30 0.31 0.32 0.32 0.32 0.31 0.32 0.34 0.37 0.43 0.50 0.56 0.62 0.67 0.75 0.83 0.95 1.03 1.13 1.18 1.23 1.30 1.39 1.42 1.44 1.48
0.56 0.56 0.55 0.54 0.53 0.49 0.45 0.43 0.41 0.38 0.35 0.33 0.30 0.29 0.28 0.27 0.26 0.26 0.26 0.27 0.27 0.27 0.26 0.25 0.24 0.24 0.23 0.26 0.32 0.43 0.55 0.65 0.75 0.85 0.94 1.02 1.04 1.07 1.10 1.18 1.24 1.29 1.34
0.46 0.45 0.45 0.42 0.38 0.36 0.34 0.32 0.30 0.29 0.27 0.26 0.25 0.24 0.24 0.24 0.24 0.23 0.23 0.24 0.23 0.24 0.23 0.23 0.22 0.22 0.21 0.21 0.21 0.26 0.36 0.51 0.64 0.69 0.73 0.79 0.87 0.95 1.04 1.12 1.04 1.08 1.12
0.36 0.35 0.33 0.32 0.31 0.30 0.29 0.27 0.25 0.24 0.23 0.22 0.21 0.21 0.21 0.21 0.20 0.20 0.20 0.20 0.20 0.20 0.21 0.20 0.20 0.20 0.20 0.20 0.21 0.26 0.25 0.29 0.40 0.47 0.53 0.56 0.64 0.72 0.85 0.92 0.92 1.02 1.08
0.34 0.33 0.33 0.32 0.32 0.30 0.28 0.26 0.25 0.24 0.24 0.23 0.21 0.20 0.20 0.20 0.19 0.19 0.18 0.17 0.17 0.18 0.19 0.19 0.19 0.19 0.19 0.19 0.23 0.24 0.23 0.24 0.22 0.28 0.30 0.34 0.41 0.48 0.62 0.69 0.77 0.87 0.92
0.36 0.35 0.34 0.32 0.32 0.30 0.28 0.25 0.23 0.22 0.21 0.19 0.18 0.17 0.17 0.17 0.17 0.16 0.16 0.15 0.16 0.17 0.18 0.18 0.18 0.18 0.18 0.20 0.23 0.25 0.22 0.22 0.20 0.21 0.19 0.21 0.23 0.26 0.37 0.45 0.56 0.64 0.73
0.36 0.35 0.33 0.32 0.31 0.29 0.27 0.25 0.23 0.21 0.19 0.17 0.15 0.14 0.14 0.14 0.14 0.14 0.14 0.14 0.16 0.16 0.17 0.17 0.18 0.17 0.17 0.18 0.21 0.26 0.22 0.22 0.20 0.20 0.18 0.19 0.20 0.20 0.21 0.28 0.34 0.43 0.54
0.34 0.33 0.31 0.30 0.29 0.28 0.26 0.24 0.22 0.20 0.17 0.15 0.13 0.12 0.13 0.12 0.14 0.14 0.14 0.15 0.16 0.16 0.17 0.18 0.18 0.18 0.17 0.19 0.21 0.28 0.21 0.21 0.20 0.20 0.17 0.19 0.20 0.19 0.20 0.21 0.23 0.28 0.32
0.34 0.34 0.32 0.30 0.29 0.28 0.26 0.25 0.24 0.21 0.18 0.16 0.14 0.13 0.12 0.12 0.13 0.14 0.14 0.15 0.17 0.16 0.17 0.18 0.19 0.19 0.19 0.21 0.23 0.26 0.27 0.22 0.21 0.20 0.18 0.20 0.20 0.20 0.20 0.20 0.21 0.22 0.24
0.36 0.36 0.35 0.33 0.31 0.31 0.29 0.27 0.25 0.21 0.19 0.17 0.15 0.13 0.13 0.12 0.13 0.14 0.15 0.15 0.16 0.16 0.16 0.18 0.19 0.19 0.17 0.20 0.22 0.26 0.33 0.27 0.23 0.21 0.20 0.20 0.20 0.21 0.21 0.22 0.22 0.21 0.22
0.38 0.38 0.37 0.37 0.36 0.35 0.35 0.33 0.30 0.26 0.23 0.20 0.18 0.17 0.15 0.14 0.14 0.13 0.14 0.15 0.16 0.16 0.16 0.17 0.18 0.19 0.20 0.20 0.19 0.21 0.20 0.28 0.22 0.23 0.22 0.20 0.21 0.21 0.21 0.23 0.22 0.22 0.21
0.32 0.32 0.31 0.31 0.31 0.30 0.30 0.28 0.26 0.25 0.23 0.22 0.21 0.21 0.20 0.20 0.19 0.17 0.16 0.15 0.15 0.15 0.15 0.16 0.18 0.21 0.20 0.23 0.23 0.20 0.17 0.15 0.19 0.24 0.22 0.21 0.21 0.21 0.22 0.23 0.23 0.23 0.23
0.25 0.26 0.26 0.26 0.25 0.24 0.22 0.22 0.19 0.19 0.18 0.18 0.18 0.18 0.18 0.19 0.20 0.21 0.21 0.19 0.18 0.17 0.17 0.20 0.22 0.22 0.22 0.19 0.22 0.23 0.24 0.22 0.17 0.16 0.20 0.21 0.21 0.21 0.22 0.24 0.23 0.23 0.24
0.24 0.23 0.23 0.23 0.22 0.21 0.20 0.20 0.18 0.17 0.15 0.13 0.12 0.12 0.14 0.16 0.17 0.20 0.23 0.23 0.23 0.23 0.24 0.24 0.23 0.22 0.23 0.22 0.21 0.22 0.22 0.25 0.23 0.21 0.18 0.19 0.21 0.21 0.23 0.24 0.24 0.24 0.26
0.24 0.24 0.25 0.24 0.23 0.22 0.19 0.19 0.18 0.16 0.15 0.12 0.11 0.11 0.10 0.10 0.12 0.15 0.19 0.21 0.26 0.28 0.28 0.30 0.30 0.27 0.25 0.24 0.24 0.24 0.23 0.22 0.22 0.22 0.21 0.21 0.21 0.21 0.23 0.24 0.24 0.26 0.26
Wind_Speed
12 10 7 5 3 2 3 2 1 2 2 5 7 7 6 7 7 7 7 7 7 7 8 8 8 8 8 9 8 8 8 8 8 9 8 9 9 9 9 9 9 9 9
12 10 8 6 5 3 3 2 2 3 3 3 4 5 5 5 6 6 7 7 7 7 7 7 7 7 7 7 7 7 6 6 7 8 8 7 8 8 8 8 8 7 8
11 10 8 7 6 5 4 4 4 4 4 4 4 5 5 5 5 6 6 6 7 7 7 7 7 7 7 7 7 6 6 6 6 7 6 6 7 7 7 7 7 6 6
9 10 9 7 7 6 6 5 5 5 5 5 5 5 6 6 6 6 6 7 7 7 7 7 7 7 7 7 7 6 6 6 7 6 6 6 7 7 7 7 6 5 5
7 9 9 8 8 8 7 7 7 7 7 7 7 7 7 7 7 7 8 8 8 8 8 8 8 8 8 8 8 7 7 7 7 6 6 7 7 8 7 7 7 6 5
8 8 9 9 9 9 9 9 9 8 8 8 8 9 9 9 9 10 10 10 10 10 10 10 10 9 9 9 9 8 8 9 7 6 7 8 8 8 8 8 7 7 6
9 9 9 10 9 10 10 10 10 10 10 10 10 11 11 11 12 12 12 13 13 13 13 13 12 12 11 11 10 10 10 10 9 9 9 9 10 9 9 9 8 8 8
9 9 9 9 10 11 11 12 12 12 12 12 13 13 13 13 13 14 14 14 15 15 15 15 15 15 14 13 13 12 12 12 11 10 11 10 11 10 10 10 9 9 9
10 10 10 11 11 12 12 12 12 13 14 14 14 15 15 15 16 16 16 16 17 17 17 17 16 16 16 15 15 14 14 13 12 12 12 12 12 11 11 11 11 10 10
11 11 12 12 12 12 12 12 13 14 14 15 15 15 16 17 17 18 18 19 19 19 19 19 18 18 17 17 16 16 15 15 14 14 13 13 13 12 11 11 11 11 11
11 11 12 12 12 13 14 14 15 15 16 16 17 18 18 19 19 19 20 20 20 20 20 20 20 19 19 19 18 18 18 17 16 16 14 14 14 13 12 12 11 11 11
12 12 12 13 13 14 14 15 15 16 17 18 18 19 20 20 20 20 20 20 20 20 20 20 20 20 20 20 20 19 19 19 18 17 16 16 14 13 13 12 12 11 11
13 14 14 14 15 15 16 17 17 18 19 20 20 21 21 21 20 20 20 20 20 20 20 20 20 20 20 20 20 20 20 19 19 18 18 18 17 16 16 15 15 14 14
14 14 15 15 16 17 18 18 19 20 20 21 21 21 21 21 21 21 21 21 20 20 20 20 19 19 19 18 18 19 19 19 19 19 19 19 19 19 19 18 18 18 18
15 15 16 16 17 18 19 19 20 20 21 21 21 21 21 21 21 21 21 21 20 20 20 20 19 19 19 18 17 17 18 18 19 19 20 19 20 20 20 21 20 19 20
17 17 18 18 19 19 20 21 21 22 22 22 22 22 22 22 22 22 21 21 20 20 20 19 19 19 18 18 17 17 17 17 17 18 19 19 19 19 20 20 20 19 20
19 19 20 21 21 22 22 23 23 23 23 23 23 23 23 22 22 22 21 21 21 20 20 19 19 19 18 18 18 17 17 16 17 17 17 18 18 19 19 20 20 20 21
20 21 22 22 23 23 24 24 24 24 25 25 25 24 24 23 23 22 22 22 22 21 21 20 20 20 20 20 19 19 18 18 17 17 18 18 18 19 19 20 20 20 21
21 21 22 23 24 24 25 25 25 25 26 26 26 25 25 25 24 24 24 23 23 22 22 22 21 21 22 21 21 21 20 19 19 19 19 19 19 20 20 21 21 22 23
21 22 23 24 25 25 26 26 27 27 27 27 27 27 27 27 26 26 25 25 25 24 24 24 23 23 22 23 23 22 23 22 21 20 20 21 21 22 22 22 23 23 24
23 24 25 26 27 27 28 28 29 29 29 29 28 28 28 28 28 28 28 27 27 26 26 25 25 25 24 24 24 25 24 24 24 23 23 23 23 23 23 24 24 24 25
23 24 25 26 27 28 29 30 30 30 30 30 30 30 30 30 30 30 30 30 29 29 28 28 27 27 27 25 26 27 27 28 27 26 25 25 25 25 25 25 25 25 25
21 23 24 25 26 28 29 29 30 30 31 31 32 32 32 32 32 32 32 32 31 31 31 30 30 29 30 29 27 28 29 30 30 29 28 28 28 28 27 27 27 27 26
23 23 24 26 27 28 28 29 30 31 32 32 33 33 34 34 34 34 34 34 33 33 32 32 32 32 31 31 32 30 30 31 32 33 32 31 31 30 30 29 29 28 28
21 22 24 25 26 27 28 29 30 31 32 33 34 34 34 35 35 35 35 35 35 34 34 34 34 34 34 33 33 34 34 34 34 35 35 35 34 34 33 33 32 31 31
22 23 25 27 28 29 29 30 31 31 32 33 33 34 35 36 36 36 36 36 36 36 36 36 37 36 36 36 36 35 35 36 36 36 37 38 38 37 37 36 35 34 34
Wind_Direction
211 217 225 243 254 298 338 354 9 8 9 19 24 32 34 34 34 30 28 22 21 21 22 24 26 29 31 31 32 34 37 39 39 36 36 38 36 37 37 38 41 41 43
212 214 222 239 246 263 301 300 305 316 324 339 351 8 16 17 18 18 19 19 15 10 11 10 11 11 13 13 16 18 21 25 22 23 23 25 27 27 27 28 30 34 39
207 214 226 241 249 262 280 288 291 299 307 311 318 326 337 348 351 354 357 1 5 7 4 359 357 356 356 355 358 358 2 2 359 1 8 13 11 12 13 15 17 24 26
215 219 229 244 253 264 270 280 285 291 300 298 305 310 318 323 324 329 333 336 340 345 350 352 350 346 343 341 340 338 339 341 341 344 353 355 355 355 358 358 358 359 3
221 224 234 248 256 264 267 270 279 288 294 294 294 300 304 309 312 314 316 315 317 321 326 329 332 334 333 331 327 323 321 322 322 326 328 330 333 338 337 341 340 337 335
230 233 239 246 258 264 268 271 275 281 287 291 292 294 297 297 301 302 304 306 306 307 307 311 313 316 319 319 317 313 311 313 315 314 312 318 320 319 321 324 324 322 315
235 239 245 252 261 265 268 271 275 279 283 285 288 290 292 294 294 296 297 298 298 298 299 299 299 300 303 306 307 304 301 307 300 300 302 308 311 308 310 310 310 310 304
240 243 249 256 263 269 271 270 275 277 281 284 285 287 289 291 292 292 294 294 294 294 294 293 293 291 292 294 295 295 294 297 294 293 294 297 307 301 302 301 302 302 300
245 248 254 261 265 268 272 271 272 277 280 282 285 286 286 288 289 291 291 293 292 292 292 291 290 289 286 287 288 287 287 291 287 288 291 292 300 294 297 298 294 295 296
249 255 260 264 269 269 270 272 274 278 281 283 284 286 286 287 288 289 290 290 290 289 289 288 287 286 283 283 283 283 282 282 282 283 286 288 290 293 295 294 294 290 290
254 259 263 267 270 270 272 274 277 279 282 284 284 285 286 287 288 288 289 289 288 287 287 285 285 283 281 279 278 278 277 277 278 279 282 287 284 283 289 290 292 292 290
258 263 267 269 272 273 273 276 278 281 283 286 287 287 287 287 287 288 289 288 287 288 286 285 284 282 280 278 276 275 274 273 274 272 275 279 280 282 285 287 285 287 290
259 263 268 270 273 274 276 278 280 282 284 285 287 287 287 286 287 288 289 289 288 287 286 285 284 283 281 278 275 273 272 271 270 270 272 273 276 279 279 280 279 279 285
261 265 268 271 273 276 276 278 280 282 283 285 286 287 286 285 286 287 287 288 288 287 287 287 284 284 282 280 278 274 272 270 269 269 271 272 274 275 275 276 277 278 278
264 267 270 273 276 278 279 281 282 284 285 285 287 287 286 286 286 287 287 287 288 288 286 286 284 284 282 280 278 276 273 272 270 270 271 274 273 275 274 273 277 277 276
266 269 272 275 278 279 281 282 283 283 284 284 286 286 286 286 286 286 286 287 288 288 287 286 285 283 281 279 275 274 275 273 273 272 273 273 274 274 274 274 276 275 275
269 271 273 276 278 280 281 282 283 284 284 284 285 285 285 285 285 284 284 285 286 286 285 285 284 283 280 277 274 273 274 274 274 274 276 275 275 275 276 276 276 275 275
271 273 276 277 278 280 281 282 283 284 284 284 283 283 283 283 283 283 283 284 284 285 284 283 283 281 278 274 273 272 272 273 275 276 277 278 278 278 278 278 277 277 276
274 275 276 278 279 280 281 282 283 283 283 283 283 282 282 282 282 281 282 282 283 283 282 281 281 282 280 275 272 269 271 272 274 274 278 278 279 280 279 279 278 278 279
276 277 279 280 281 282 283 283 284 284 283 283 282 281 281 281 280 280 281 281 281 281 282 281 280 280 282 276 272 269 269 269 273 274 278 278 279 281 280 281 280 280 280
279 280 281 281 282 282 283 283 283 283 283 282 281 281 280 280 280 280 279 280 279 279 280 281 278 279 282 279 273 269 268 269 271 273 275 279 279 280 280 281 281 281 281
282 282 282 283 283 283 283 283 284 283 282 282 281 281 280 280 280 279 278 278 278 277 278 278 278 277 278 281 275 271 269 268 272 271 274 279 278 279 279 280 280 281 282
288 287 286 286 286 286 286 285 284 284 282 281 280 280 280 279 279 278 277 277 277 277 276 276 277 277 277 276 278 273 271 269 271 269 272 275 278 277 278 278 279 279 280
292 291 290 289 289 289 288 287 286 286 284 283 281 280 279 279 279 278 277 277 276 275 275 276 277 276 276 277 274 274 272 271 270 269 270 273 277 276 276 276 278 278 278
297 296 295 294 292 292 291 290 288 288 286 284 283 281 280 279 278 278 278 276 275 275 276 276 277 276 276 275 275 274 272 271 272 269 269 272 274 274 274 274 276 276 277
301 299 297 295 293 292 292 291 290 288 288 286 285 283 281 279 278 278 277 276 275 276 276 276 276 276 276 275 274 273 272 271 272 271 271 272 272 272 273 274 274 274 276